Location: Unspecified
(58.7730°N, 5.8460°E)
Time: 21:37:22
(UTC+01:00)

Okean 3 - Visible Passes

Search period start: 06 February 2016 00:00
Search period end: 16 February 2016 00:00
Orbit: 578 x 605 km, 82.5° (Epoch: 06 February)

Date Brightness Start Highest point End Pass type
(mag) Time Alt. Az. Time Alt. Az. Time Alt. Az.
06 Feb 6.3 07:40:32 10° SE 07:43:41 21° E 07:46:52 10° NE visible
06 Feb 3.3 19:11:56 10° NNW 19:16:09 83° ENE 19:20:22 10° SSE visible
06 Feb 6.3 20:50:11 10° NW 20:52:54 17° W 20:55:37 10° WSW visible
07 Feb 3.6 19:20:39 10° NNW 19:24:50 73° W 19:29:02 10° S visible
07 Feb 6.7 20:59:31 10° NW 21:01:23 13° W 21:03:14 10° WSW visible
08 Feb 4.4 17:52:18 10° N 17:55:55 27° ENE 17:59:31 10° ESE visible
08 Feb 4.2 19:29:24 10° NNW 19:33:30 53° W 19:37:35 10° S visible
09 Feb 4.0 18:00:51 10° N 18:04:45 35° ENE 18:08:37 10° SE visible
09 Feb 4.9 19:38:11 10° NNW 19:42:06 39° W 19:46:01 10° SSW visible
10 Feb 6.8 06:39:56 10° ESE 06:41:34 12° ENE 06:43:11 10° NE visible
10 Feb 3.7 18:09:28 10° N 18:13:32 46° ENE 18:17:35 10° SE visible
10 Feb 5.5 19:47:02 10° NNW 19:50:41 29° W 19:54:20 10° SSW visible
11 Feb 6.6 06:47:27 10° ESE 06:50:02 16° E 06:52:36 10° NE visible
11 Feb 3.4 18:18:05 10° N 18:22:17 62° ENE 18:26:28 10° SSE visible
11 Feb 6.1 19:55:59 10° NW 19:59:14 22° W 20:02:29 10° SW visible
12 Feb 6.3 06:55:22 10° SE 06:58:32 21° E 07:01:43 10° NE visible
12 Feb 3.4 18:26:46 10° NNW 18:30:59 85° ENE 18:35:13 10° SSE visible
12 Feb 6.5 20:05:02 10° NW 20:07:44 17° W 20:10:25 10° WSW visible
13 Feb 5.8 07:03:29 10° SSE 07:07:04 28° E 07:10:40 10° NNE visible
13 Feb 3.8 18:35:28 10° NNW 18:39:40 71° W 18:43:53 10° S visible
13 Feb 6.9 20:14:23 10° NW 20:16:12 13° W 20:18:01 10° WSW visible
14 Feb 5.2 07:11:46 10° SSE 07:15:38 37° E 07:19:31 10° NNE visible
14 Feb 4.4 18:44:12 10° NNW 18:48:19 52° W 18:52:25 10° S visible
15 Feb 4.5 07:20:11 10° S 07:24:14 51° E 07:28:19 10° NNE visible
15 Feb 5.1 18:53:00 10° NNW 18:56:55 38° W 19:00:51 10° SSW visible
